{"data":{"norad_id":65334,"epoch":"2026-09-20T18:47:08.793888Z","epoch_age_seconds":93042,"freshness":"FRESH","line1":"1 65334U 25189M   26263.78274067  .00008352  00000+0  28042-3 0  9992","line2":"2 65334  53.1601  19.3388 0001233  67.8477 292.2656 15.31721428 60999","mean_motion":15.31721428,"eccentricity":0.0001233,"inclination_deg":53.1601,"raan_deg":19.3388,"arg_perigee_deg":67.8477,"mean_anomaly_deg":292.2656,"bstar":0.00028042,"rev_number":6099,"period_min":94.011872764634,"perigee_km":469.8316615596,"apogee_km":471.52057887505,"semimajor_km":6848.8131202173,"source":"CELESTRAK","updated_at":"2026-09-21T09:00:35.571105Z"}}